EW6434 Weather Reports


time (UTC)temp
F
wind
direction
speed
knots
gust
knots
rain 1hr
in
rain 24hr
in
rain mn
in
humidity
%
barometer
mb
20260905154518 59 62 0.0 0.0 0.00 0.00 0.00 68 1014.4
20260905153018 55 62 0.0 0.0 0.00 0.00 0.00 74 1014.6
20260905151518 52 63 0.0 0.0 0.00 0.00 0.00 81 1014.8
20260905150006 47 62 0.0 0.0 0.00 0.00 0.00 88 1014.9
20260905144514 44 62 0.0 0.0 0.00 0.00 0.00 90 1014.9
20260905143005 43 62 0.0 0.0 0.00 0.00 0.00 92 1014.9
20260905141503 42 62 0.0 0.0 0.00 0.00 0.00 92 1015.0
20260905134501 42 62 0.0 0.0 0.00 0.00 0.00 92 1014.9
20260905133105 42 62 0.0 0.0 0.00 0.00 0.00 92 1014.8
20260905131600 41 62 0.0 0.0 0.00 0.00 0.00 92 1014.6
20260905130057 41 62 0.0 0.0 0.00 0.00 0.00 91 1014.5
20260905124555 42 62 0.0 0.0 0.00 0.00 0.00 91 1014.2
20260905123105 42 62 0.0 0.0 0.00 0.00 0.00 91 1014.0
20260905121555 42 62 0.0 0.0 0.00 0.00 0.00 91 1013.7
20260905120051 42 62 0.0 0.0 0.00 0.00 0.00 91 1013.6
20260905114556 42 62 0.0 0.0 0.00 0.00 0.00 91 1013.6
20260905113046 42 62 0.0 0.0 0.00 0.00 0.00 90 1013.5
20260905111546 42 62 0.0 0.0 0.00 0.00 0.00 91 1013.5
20260905110044 42 62 0.0 0.0 0.00 0.00 0.00 91 1013.4
20260905104546 43 62 0.0 0.0 0.00 0.00 0.00 91 1013.3
20260905103043 43 62 0.0 0.0 0.00 0.00 0.00 92 1013.2
20260905101551 43 62 0.0 0.0 0.00 0.00 0.00 91 1013.0
20260905100111 43 62 0.0 0.0 0.00 0.00 0.00 91 1013.0
20260905094546 43 62 0.0 0.0 0.00 0.00 0.00 91 1013.0
20260905093036 44 62 0.0 0.0 0.00 0.00 0.00 91 1012.9
20260905091547 44 62 0.0 0.0 0.00 0.00 0.00 91 1013.0
20260905090035 43 62 0.0 0.0 0.00 0.00 0.00 92 1013.0
20260905084538 44 62 0.0 0.0 0.00 0.00 0.00 92 1013.0
20260905083040 44 62 0.0 0.0 0.00 0.00 0.00 91 1013.1
20260905081531 44 62 0.0 0.0 0.00 0.00 0.00 92 1013.2
20260905080030 44 62 0.0 0.0 0.00 0.00 0.00 92 1013.2
20260905074530 45 62 0.0 0.0 0.00 0.00 0.00 91 1013.2
20260905073027 45 62 0.0 0.0 0.00 0.00 0.00 91 1013.0
20260905071525 45 62 0.0 0.0 0.00 0.00 0.00 90 1013.1
20260905070023 45 62 0.0 0.0 0.00 0.00 0.00 90 1012.9
20260905064522 46 62 0.0 0.0 0.00 0.00 0.00 89 1012.8
20260905063019 46 62 0.0 0.0 0.00 0.00 0.00 89 1012.7
20260905061518 46 62 0.0 0.0 0.00 0.00 0.00 88 1012.8
20260905060019 47 62 0.0 0.0 0.00 0.00 0.00 88 1012.7
20260905054539 47 62 0.0 0.0 0.00 0.00 0.00 86 1012.7
20260905053015 48 62 0.0 0.0 0.00 0.00 0.00 86 1012.6
20260905051514 48 62 0.0 0.0 0.00 0.00 0.00 84 1012.4
20260905050015 49 62 0.0 0.0 0.00 0.00 0.00 83 1012.3
20260905044514 49 62 0.0 0.0 0.00 0.00 0.00 82 1012.2
20260905043013 50 62 0.0 0.0 0.00 0.00 0.00 82 1012.1
20260905041514 50 62 0.0 0.0 0.00 0.00 0.00 79 1012.0
20260905040012 51 62 0.0 0.0 0.00 0.00 0.00 79 1011.9
20260905034514 52 62 0.0 0.0 0.00 0.00 0.00 77 1011.9
20260905033015 52 62 0.0 0.0 0.00 0.00 0.00 76 1011.8
20260905031511 53 62 0.0 0.0 0.00 0.00 0.00 74 1011.5
20260905030013 54 62 0.0 0.0 0.00 0.00 0.00 72 1011.3
20260905024509 55 62 0.0 0.0 0.00 0.00 0.00 71 1011.0
20260905023009 56 62 0.0 0.0 0.00 0.00 0.00 68 1010.5
20260905021509 57 62 0.0 0.0 0.00 0.00 0.00 66 1010.3
20260905020008 58 62 0.0 0.0 0.00 0.00 0.00 64 1010.4
20260905014507 59 62 0.0 0.0 0.00 0.00 0.00 61 1010.3
20260905013013 60 62 0.0 0.0 0.00 0.00 0.00 60 1010.0
20260905011507 62 62 0.0 0.0 0.00 0.00 0.00 56 1009.9
20260905010014 64 62 0.0 0.9 0.00 0.00 0.00 49 1009.8
20260905004507 65 63 0.0 1.7 0.00 0.00 0.00 47 1009.7
20260905003006 66 272 0.0 0.9 0.00 0.00 0.00 44 1009.5
20260905001505 68 69 0.0 3.5 0.00 0.00 0.00 44 1009.3
20260905000006 69 137 0.0 0.9 0.00 0.00 0.00 42 1009.1
20260904234504 70 73 0.0 2.6 0.00 0.00 0.00 39 1009.2
20260904233002 71 96 0.0 5.2 0.00 0.00 0.00 37 1009.3
20260904231501 72 53 0.0 5.2 0.00 0.00 0.00 36 1009.2
20260904230003 73 216 0.9 5.2 0.00 0.00 0.00 37 1009.3
20260904224605 72 131 0.9 5.2 0.00 0.00 0.00 35 1009.3
20260904223059 72 222 0.0 7.8 0.00 0.00 0.00 39 1009.3
20260904221606 73 222 0.0 2.6 0.00 0.00 0.00 39 1009.3
20260904220101 72 237 0.0 5.2 0.00 0.00 0.00 39 1009.5
20260904214556 72 162 0.0 3.5 0.00 0.00 0.00 38 1009.7
20260904213053 72 226 0.0 5.2 0.00 0.00 0.00 42 1009.9
20260904211551 73 128 0.0 5.2 0.00 0.00 0.00 39 1010.1
20260904210054 72 82 0.0 1.7 0.00 0.00 0.00 42 1010.5
20260904204545 69 112 0.0 6.1 0.00 0.00 0.00 46 1010.8
20260904203051 66 252 0.0 4.3 0.00 0.00 0.00 56 1011.1
20260904201544 67 329 0.0 6.1 0.00 0.00 0.00 45 1011.0
20260904200056 69 113 0.0 7.0 0.00 0.00 0.00 43 1011.1
20260904194543 67 105 0.9 7.0 0.00 0.00 0.00 48 1011.3
20260904193040 68 101 0.9 4.3 0.00 0.00 0.00 45 1011.3
20260904191539 69 19 1.7 8.7 0.00 0.00 0.00 44 1011.2
20260904190036 68 83 0.9 7.0 0.00 0.00 0.00 45 1011.5
20260904184537 67 160 0.9 6.1 0.00 0.00 0.00 51 1011.7
20260904183039 67 49 0.9 5.2 0.00 0.00 0.00 50 1011.7
20260904181530 66 56 0.9 4.3 0.00 0.00 0.00 54 1011.9
20260904180038 63 154 0.0 3.5 0.00 0.00 0.00 57 1012.4
20260904174527 62 85 0.0 2.6 0.00 0.00 0.00 59 1012.6
20260904173026 62 95 0.0 5.2 0.00 0.00 0.00 57 1012.6
20260904171525 64 84 0.9 7.0 0.00 0.00 0.00 52 1012.2
20260904170025 63 94 0.9 6.1 0.00 0.00 0.00 52 1012.3
20260904164523 64 44 1.7 7.0 0.00 0.00 0.00 52 1012.4
20260904163021 63 65 0.0 4.3 0.00 0.00 0.00 54 1012.4
20260904161517 62 108 0.0 3.5 0.00 0.00 0.00 57 1012.4
20260904160014 61 102 0.0 2.6 0.00 0.00 0.00 57 1012.6